Location: Carnières
(50.1682°N, 3.3474°E)
Time: 13:50:34
(UTC+00:00)

Helios 1A Rocket - Pass Details

Date: 23 May 2024
Orbit: 520 x 543 km, 98.3° (Epoch: 16 June)

Event Time Altitude Azimuth Distance (km) Brightness Sun altitude
Exits shadow 00:07:57 23° 120° (ESE) 1,181 4.3 -19.0°
Maximum altitude 00:09:49 37° 68° (ENE) 840 3.9 -19.0°
Drops below altitude 10° 00:13:24 10° 0° (N) 1,794 6.7 -18.9°
Sets 00:15:36 0° 352° (N) 2,685 7.8 -18.8°
